GW7481 Weather Reports


Display with metric or nautical units.
time (UTC)temp
F
wind
direction
speed
MPH
gust
MPH
rain 1hr
in
rain 24hr
in
rain mn
in
humidity
%
barometer
mb
20260905191038 63 0.0 0.0 0.00 0.06 0.06 64 1021.3
20260905190518 63 0.0 0.0 0.00 0.06 0.06 63 1020.9
20260905190038 64 0.0 0.0 0.00 0.06 0.06 62 1020.9
20260905185518 64 0.0 0.0 0.00 0.06 0.06 62 1020.9
20260905185039 63 0.0 0.0 0.00 0.06 0.06 62 1020.9
20260905184518 63 0.0 0.0 0.00 0.06 0.06 62 1020.9
20260905184039 63 0.0 0.0 0.00 0.06 0.06 62 1020.6
20260905183518 63 0.0 0.0 0.00 0.06 0.06 63 1020.9
20260905183038 64 198 0.0 3.0 0.00 0.06 0.06 61 1020.3
20260905182540 64 0.0 0.0 0.00 0.06 0.06 61 1020.6
20260905182018 64 0.0 0.0 0.00 0.06 0.06 59 1020.3
20260905181540 64 0.0 0.0 0.00 0.06 0.06 58 1020.3
20260905181018 65 0.0 0.0 0.00 0.06 0.06 57 1020.7
20260905180518 65 0.0 0.0 0.00 0.06 0.06 56 1020.4
20260905180022 66 0.0 0.0 0.00 0.06 0.06 55 1020.4
20260905175518 66 198 0.0 2.0 0.00 0.06 0.06 53 1020.1
20260905175020 67 198 0.0 2.0 0.00 0.06 0.06 53 1020.1
20260905174518 67 198 1.0 3.0 0.00 0.06 0.06 52 1020.1
20260905174018 67 198 1.0 3.0 0.00 0.06 0.06 52 1020.2
20260905173538 67 198 1.0 4.0 0.00 0.06 0.06 52 1020.2
20260905173018 67 198 1.0 4.0 0.00 0.06 0.06 51 1020.2
20260905172538 67 198 2.0 6.0 0.00 0.06 0.06 50 1020.2
20260905172026 68 198 2.0 5.0 0.00 0.06 0.06 50 1020.0
20260905171539 68 198 3.0 8.0 0.00 0.06 0.06 49 1020.0
20260905171022 68 198 2.0 8.0 0.00 0.06 0.06 49 1019.9
20260905170518 68 198 3.0 9.0 0.00 0.06 0.06 49 1019.9
20260905170028 69 198 2.0 8.0 0.00 0.06 0.06 49 1019.9
20260905165518 69 198 3.0 6.0 0.00 0.06 0.06 48 1020.3
20260905165018 69 198 1.0 5.0 0.00 0.06 0.06 48 1020.0
20260905164538 69 198 3.0 10.0 0.00 0.06 0.06 47 1019.6
20260905164018 70 198 1.0 5.0 0.00 0.06 0.06 47 1020.1
20260905163539 70 198 3.0 7.0 0.00 0.06 0.06 47 1019.8
20260905163020 71 198 4.0 10.0 0.00 0.06 0.06 45 1019.9
20260905162538 71 198 4.0 10.0 0.00 0.06 0.06 44 1019.9
20260905162038 72 198 4.0 8.0 0.00 0.06 0.06 44 1019.9
20260905161518 72 198 4.0 10.0 0.00 0.06 0.06 44 1019.9
20260905161042 72 198 4.0 10.0 0.00 0.06 0.06 43 1019.6
20260905160518 72 198 4.0 9.0 0.00 0.06 0.06 43 1019.6
20260905160038 72 198 4.0 13.0 0.00 0.06 0.06 43 1019.9
20260905155519 73 198 4.0 9.0 0.00 0.06 0.06 42 1019.6
20260905155038 72 198 5.0 17.0 0.00 0.06 0.06 42 1019.6
20260905154518 73 198 7.0 14.0 0.00 0.06 0.06 42 1019.6
20260905154039 73 198 5.0 11.0 0.00 0.06 0.06 42 1019.6
20260905153538 73 198 5.0 11.0 0.00 0.06 0.06 42 1019.7
20260905153022 73 198 5.0 12.0 0.00 0.06 0.06 42 1019.6
20260905152540 72 198 5.0 11.0 0.00 0.06 0.06 43 1019.6
20260905152019 71 198 4.0 9.0 0.00 0.06 0.06 44 1019.6
20260905151522 71 198 3.0 9.0 0.00 0.06 0.06 45 1019.6
20260905151019 71 198 4.0 8.0 0.00 0.06 0.06 45 1019.6
20260905150524 71 198 2.0 9.0 0.00 0.06 0.06 44 1019.7
20260905150025 71 198 2.0 11.0 0.00 0.06 0.06 45 1019.7
20260905145540 73 198 4.0 11.0 0.00 0.06 0.06 44 1019.7
20260905145026 74 198 3.0 6.0 0.00 0.06 0.06 42 1019.8
20260905144545 74 198 4.0 9.0 0.00 0.06 0.06 41 1019.8
20260905144018 74 198 5.0 10.0 0.00 0.06 0.06 41 1019.6
20260905143520 75 198 5.0 10.0 0.00 0.06 0.06 41 1019.9
20260905143038 74 198 3.0 9.0 0.00 0.06 0.06 42 1019.9
20260905142518 73 198 3.0 9.0 0.00 0.06 0.06 44 1019.9
20260905142038 74 198 2.0 5.0 0.00 0.06 0.06 45 1019.9
20260905141518 74 198 6.0 9.0 0.00 0.06 0.06 43 1019.6
20260905141106 73 198 2.0 7.0 0.00 0.06 0.06 45 1019.8
20260905140518 72 198 4.0 9.0 0.00 0.06 0.06 47 1019.7
20260905140041 74 198 3.0 7.0 0.00 0.06 0.06 46 1019.7
20260905135518 74 198 4.0 10.0 0.00 0.06 0.06 45 1019.8
20260905135038 75 198 4.0 11.0 0.00 0.06 0.06 45 1020.1
20260905134518 75 198 3.0 9.0 0.00 0.06 0.06 46 1019.8
20260905134018 74 198 5.0 14.0 0.00 0.06 0.06 47 1019.8
20260905133521 73 198 4.0 8.0 0.00 0.06 0.06 49 1019.4
20260905133018 72 198 3.0 9.0 0.00 0.06 0.06 49 1019.7
20260905132519 72 198 5.0 12.0 0.00 0.06 0.06 52 1020.0
20260905132039 73 198 5.0 10.0 0.00 0.06 0.06 50 1019.7
20260905131518 73 198 6.0 20.0 0.00 0.06 0.06 50 1019.7
20260905131038 72 198 4.0 10.0 0.00 0.06 0.06 51 1019.7
20260905130518 72 198 6.0 12.0 0.00 0.06 0.06 52 1019.7
20260905130042 74 198 5.0 13.0 0.00 0.06 0.06 51 1019.8
20260905125524 74 198 3.0 9.0 0.00 0.06 0.06 51 1020.1
20260905125019 72 198 1.0 7.0 0.00 0.06 0.06 55 1019.8
20260905124518 72 198 1.0 4.0 0.00 0.06 0.06 55 1020.1
20260905124018 72 198 4.0 12.0 0.00 0.06 0.06 56 1020.1
20260905123518 72 198 4.0 9.0 0.00 0.06 0.06 57 1019.7
20260905123024 71 198 3.0 12.0 0.00 0.06 0.06 57 1020.1
20260905122518 72 198 4.0 9.0 0.00 0.06 0.06 57 1020.1
20260905122022 71 198 4.0 9.0 0.00 0.06 0.06 57 1020.0
20260905121520 70 198 3.0 7.0 0.00 0.06 0.06 59 1020.3
20260905121018 69 198 2.0 4.0 0.00 0.06 0.06 61 1020.2
20260905120542 69 198 3.0 8.0 0.00 0.06 0.06 61 1019.9
20260905120021 68 198 4.0 9.0 0.00 0.06 0.06 62 1020.2
20260905115541 68 198 4.0 9.0 0.00 0.06 0.06 62 1019.9
20260905115018 68 198 4.0 9.0 0.00 0.06 0.06 61 1020.2
20260905114521 68 198 5.0 14.0 0.00 0.06 0.06 61 1019.9
20260905114023 69 198 4.0 9.0 0.00 0.06 0.06 59 1020.3
20260905113518 69 198 5.0 12.0 0.00 0.06 0.06 60 1020.3
20260905113019 68 198 5.0 9.0 0.00 0.06 0.06 62 1020.3
20260905112519 68 198 4.0 9.0 0.00 0.06 0.06 63 1020.3
20260905112025 68 198 3.0 9.0 0.00 0.06 0.06 64 1019.9
20260905111520 67 198 4.0 10.0 0.00 0.06 0.06 65 1020.2
20260905111019 67 198 3.0 9.0 0.00 0.06 0.06 66 1020.2
20260905110519 70 198 5.0 18.0 0.00 0.06 0.06 63 1020.3
20260905110022 70 198 2.0 7.0 0.00 0.06 0.06 62 1020.3
20260905105519 69 198 4.0 9.0 0.00 0.06 0.06 64 1020.6
20260905105036 69 198 3.0 11.0 0.00 0.06 0.06 64 1020.2
20260905104518 68 198 4.0 8.0 0.00 0.06 0.06 64 1020.2
20260905104025 67 198 5.0 15.0 0.00 0.06 0.06 66 1020.2
20260905103518 67 198 3.0 7.0 0.00 0.06 0.06 70 1020.2
20260905103019 66 198 5.0 10.0 0.00 0.06 0.06 71 1020.1
20260905102521 65 198 4.0 9.0 0.00 0.06 0.06 72 1020.1
20260905102020 66 198 5.0 9.0 0.00 0.06 0.06 72 1020.1
20260905101518 65 198 2.0 6.0 0.00 0.06 0.06 74 1020.5
20260905101028 66 198 3.0 7.0 0.00 0.06 0.06 72 1020.5
20260905100518 66 198 4.0 12.0 0.00 0.06 0.06 72 1020.5
20260905100050 65 198 5.0 10.0 0.00 0.06 0.06 73 1020.5
20260905095518 66 198 2.0 8.0 0.00 0.06 0.06 74 1020.2
20260905095052 65 198 1.0 5.0 0.00 0.06 0.06 76 1020.5
20260905094519 65 198 2.0 8.0 0.00 0.06 0.06 76 1020.2
20260905094042 65 198 3.0 6.0 0.00 0.06 0.06 77 1020.1
20260905093519 64 198 4.0 8.0 0.00 0.06 0.06 77 1020.4
20260905093032 63 198 4.0 10.0 0.00 0.06 0.06 79 1020.3
20260905092519 65 198 5.0 9.0 0.00 0.06 0.06 81 1020.4
20260905092019 64 198 4.0 8.0 0.00 0.06 0.06 82 1020.4
20260905091519 63 198 3.0 8.0 0.00 0.06 0.06 83 1020.6
20260905091032 63 198 1.0 3.0 0.00 0.06 0.06 84 1020.7
20260905090519 63 198 3.0 6.0 0.00 0.06 0.06 85 1020.4
20260905090018 62 198 3.0 7.0 0.00 0.06 0.06 88 1020.3
20260905085519 62 198 2.0 7.0 0.00 0.06 0.06 88 1020.6
20260905085019 62 198 3.0 6.0 0.00 0.06 0.06 88 1020.3
20260905084521 62 198 4.0 9.0 0.00 0.06 0.06 88 1020.3
20260905084038 61 198 3.0 6.0 0.00 0.06 0.06 89 1020.3
20260905083519 61 198 2.0 3.0 0.00 0.06 0.06 89 1020.3
20260905083047 61 198 2.0 3.0 0.00 0.06 0.06 89 1020.3
20260905082519 61 198 2.0 6.0 0.00 0.06 0.06 89 1020.3
20260905082023 60 198 3.0 6.0 0.00 0.06 0.06 91 1020.3
20260905081521 60 198 3.0 5.0 0.00 0.06 0.06 93 1020.3
20260905081030 60 198 3.0 5.0 0.00 0.06 0.06 95 1020.0
20260905080518 60 198 1.0 3.0 0.00 0.06 0.06 95 1020.0
20260905080023 60 198 0.0 3.0 0.00 0.06 0.06 95 1020.3
20260905075518 60 0.0 0.0 0.00 0.06 0.06 95 1019.3
20260905075048 60 198 0.0 3.0 0.00 0.06 0.06 95 1019.3
20260905074520 60 198 1.0 3.0 0.00 0.06 0.06 95 1019.6
20260905074039 60 0.0 0.0 0.00 0.06 0.06 94 1019.6
20260905073519 60 198 0.0 3.0 0.00 0.06 0.06 92 1019.7
20260905073039 60 0.0 0.0 0.00 0.06 0.06 92 1019.7
20260905072519 60 198 0.0 3.0 0.00 0.06 0.06 92 1019.7
20260905072045 60 198 1.0 3.0 0.00 0.06 0.06 93 1019.7
20260905071519 60 198 1.0 3.0 0.00 0.06 0.06 94 1019.7
20260905071045 60 198 0.0 2.0 0.00 0.06 0.06 95 1019.7
20260905070521 60 198 0.0 3.0 0.00 0.06 0.06 95 1020.0
20260905070039 60 0.0 0.0 0.02 0.06 0.06 95 1019.2
20260905065519 59 198 2.0 4.0 0.02 0.06 0.06 94 1019.2
20260905065019 59 198 1.0 3.0 0.02 0.06 0.06 94 1018.9
20260905064519 59 0.0 0.0 0.03 0.06 0.06 93 1018.9
20260905064033 59 0.0 0.0 0.03 0.06 0.06 94 1018.9
20260905063519 59 0.0 0.0 0.03 0.06 0.06 94 1018.7
20260905063045 59 0.0 0.0 0.03 0.06 0.06 93 1019.0
20260905062521 59 0.0 0.0 0.03 0.06 0.06 94 1019.0
20260905062045 59 0.0 0.0 0.03 0.06 0.06 92 1019.0
20260905061519 59 0.0 0.0 0.03 0.06 0.06 89 1018.7
20260905061046 59 198 0.0 5.0 0.03 0.06 0.06 88 1018.7
20260905060518 59 198 1.0 5.0 0.03 0.06 0.06 88 1019.0
20260905060039 60 198 2.0 6.0 0.02 0.05 0.05 85 1019.0
20260905055519 60 198 2.0 6.0 0.02 0.05 0.05 86 1019.6
20260905055020 60 198 1.0 3.0 0.02 0.05 0.05 87 1019.0
20260905054518 60 198 1.0 3.0 0.00 0.03 0.03 85 1018.6
20260905054023 60 198 1.0 5.0 0.00 0.03 0.03 85 1019.3
20260905053519 61 198 1.0 5.0 0.00 0.03 0.03 84 1019.1
20260905053019 62 198 1.0 6.0 0.00 0.03 0.03 80 1019.1
20260905052538 62 198 2.0 6.0 0.00 0.03 0.03 77 1019.1
20260905052022 62 198 3.0 7.0 0.02 0.03 0.03 77 1019.1
20260905051538 62 198 3.0 8.0 0.02 0.03 0.03 78 1018.5
20260905051018 62 198 2.0 5.0 0.02 0.03 0.03 81 1018.5
20260905050558 62 198 2.0 6.0 0.02 0.03 0.03 82 1018.6
20260905050020 62 198 2.0 7.0 0.02 0.03 0.03 82 1018.6
20260905045539 63 198 2.0 7.0 0.02 0.03 0.03 84 1018.6
20260905045019 62 198 2.0 8.0 0.02 0.03 0.03 84 1018.2
20260905044538 61 198 2.0 6.0 0.02 0.03 0.03 87 1018.5
20260905044033 61 198 0.0 3.0 0.02 0.03 0.03 89 1017.8
20260905043518 62 198 0.0 3.0 0.02 0.03 0.03 88 1017.9
20260905043025 62 0.0 0.0 0.02 0.03 0.03 86 1017.9
20260905042519 63 198 2.0 8.0 0.02 0.03 0.03 84 1017.6
20260905042019 64 198 2.0 5.0 0.00 0.02 0.02 79 1018.0
20260905041519 65 198 1.0 4.0 0.00 0.02 0.02 75 1017.7
20260905041022 65 198 2.0 6.0 0.00 0.02 0.02 74 1017.3
20260905040518 65 198 1.0 4.0 0.00 0.02 0.02 75 1017.3
20260905040028 64 198 1.0 5.0 0.00 0.02 0.02 77 1016.9
20260905035521 64 0.0 0.0 0.00 0.02 0.02 78 1016.9
20260905035019 64 198 0.0 2.0 0.00 0.02 0.02 77 1016.9
20260905034519 64 198 0.0 3.0 0.00 0.02 0.02 77 1016.9
20260905034019 64 198 0.0 3.0 0.00 0.02 0.02 77 1016.9
20260905033539 64 198 0.0 3.0 0.00 0.02 0.02 78 1016.6
20260905033020 64 198 0.0 3.0 0.00 0.02 0.02 78 1016.7
20260905032539 65 198 0.0 4.0 0.00 0.02 0.02 77 1016.8
20260905032019 65 198 1.0 7.0 0.00 0.02 0.02 77 1016.8
20260905031519 65 198 1.0 9.0 0.00 0.02 0.02 77 1016.8
20260905031023 65 198 1.0 6.0 0.00 0.02 0.02 77 1016.7
20260905030521 66 198 1.0 3.0 0.00 0.02 0.02 77 1016.4
20260905030036 66 198 2.0 7.0 0.00 0.02 0.02 76 1016.1
20260905025521 66 198 2.0 5.0 0.00 0.02 0.02 76 1016.1
20260905025020 66 198 3.0 10.0 0.00 0.02 0.02 76 1016.1
20260905024521 67 198 3.0 8.0 0.00 0.02 0.02 76 1016.1
20260905024020 67 198 1.0 4.0 0.00 0.02 0.02 75 1015.9
20260905023521 67 198 2.0 9.0 0.00 0.02 0.02 75 1016.1
20260905023020 68 198 2.0 6.0 0.00 0.02 0.02 74 1016.1
20260905022522 68 198 2.0 9.0 0.00 0.02 0.02 72 1015.8
20260905022023 69 198 3.0 12.0 0.00 0.02 0.02 71 1016.2
20260905021521 70 198 2.0 7.0 0.00 0.02 0.02 70 1015.9
20260905021039 70 198 2.0 7.0 0.00 0.02 0.02 71 1016.2
20260905020519 70 198 1.0 8.0 0.02 0.02 0.02 70 1016.2
20260905020038 70 198 1.0 7.0 0.02 0.02 0.02 70 1015.9
20260905015519 71 198 1.0 4.0 0.02 0.02 0.02 68 1015.6
20260905015023 69 198 2.0 6.0 0.02 0.02 0.02 68 1015.1
20260905014518 66 198 2.0 6.0 0.02 0.02 0.02 77 1015.0
20260905014028 66 0.0 0.0 0.02 0.02 0.02 86 1015.0
20260905013519 66 0.0 0.0 0.02 0.02 0.02 85 1014.7
20260905013043 67 0.0 0.0 0.02 0.02 0.02 82 1014.7
20260905012519 67 0.0 0.0 0.02 0.02 0.02 83 1015.0
20260905012047 68 0.0 0.0 0.02 0.02 0.02 81 1014.8
20260905011520 68 198 1.0 4.0 0.02 0.02 0.02 77 1014.7
20260905011036 66 198 1.0 4.0 0.02 0.02 0.02 81 1014.7
20260905010519 65 198 1.0 3.0 0.00 0.00 0.00 86 1014.9
20260905010018 66 198 0.0 3.0 0.00 0.00 0.00 85 1014.6
20260905005521 66 0.0 0.0 0.00 0.00 0.00 84 1014.3
20260905005027 66 198 1.0 3.0 0.00 0.00 0.00 82 1014.3
20260905004519 67 0.0 0.0 0.00 0.00 0.00 77 1014.7
20260905004032 67 0.0 0.0 0.00 0.00 0.00 76 1014.7
20260905003518 67 0.0 0.0 0.00 0.00 0.00 76 1014.6
20260905003028 67 0.0 0.0 0.00 0.00 0.00 76 1014.3
20260905002521 67 0.0 0.0 0.00 0.00 0.00 76 1014.3
20260905002021 67 0.0 0.0 0.00 0.00 0.00 76 1014.3
20260905001518 67 0.0 0.0 0.00 0.00 0.00 76 1014.3
20260905001030 67 0.0 0.0 0.00 0.00 0.00 77 1014.3
20260905000519 67 0.0 0.0 0.00 0.00 0.00 77 1014.3
20260905000025 67 0.0 0.0 0.00 0.00 0.00 77 1014.2
20260904235524 67 0.0 0.0 0.00 0.00 0.00 77 1014.2
20260904235019 67 0.0 0.0 0.00 0.00 0.00 76 1014.2
20260904234521 67 0.0 0.0 0.00 0.00 0.00 76 1014.6
20260904234025 67 0.0 0.0 0.00 0.00 0.00 76 1014.6
20260904233524 67 0.0 0.0 0.00 0.00 0.00 76 1014.2
20260904233026 67 0.0 0.0 0.00 0.00 0.00 76 1014.6
20260904232520 67 0.0 0.0 0.00 0.00 0.00 76 1014.6
20260904232019 67 0.0 0.0 0.00 0.00 0.00 74 1014.6
20260904231522 68 0.0 0.0 0.00 0.00 0.00 73 1014.3
20260904231019 68 0.0 0.0 0.00 0.00 0.00 72 1014.3
20260904230519 68 0.0 0.0 0.00 0.00 0.00 73 1014.3
20260904230022 67 0.0 0.0 0.00 0.00 0.00 74 1014.2
20260904225519 67 0.0 0.0 0.00 0.00 0.00 76 1014.2
20260904225033 67 0.0 0.0 0.00 0.00 0.00 77 1014.2
20260904224518 66 0.0 0.0 0.00 0.00 0.00 77 1014.5
20260904224108 66 0.0 0.0 0.00 0.00 0.00 78 1014.2
20260904223520 66 0.0 0.0 0.00 0.00 0.00 78 1014.4
20260904223041 66 0.0 0.0 0.00 0.00 0.00 78 1014.3
20260904222518 67 0.0 0.0 0.00 0.00 0.00 78 1014.0
20260904222044 67 0.0 0.0 0.00 0.00 0.00 77 1014.4
20260904221519 67 198 0.0 2.0 0.00 0.00 0.00 76 1014.4
20260904221045 67 0.0 0.0 0.00 0.00 0.00 75 1014.1
20260904220520 67 0.0 0.0 0.00 0.00 0.00 75 1014.3
20260904220019 68 0.0 0.0 0.00 0.00 0.00 75 1014.4
20260904215518 68 0.0 0.0 0.00 0.00 0.00 73 1014.1
20260904215027 68 0.0 0.0 0.00 0.00 0.00 72 1014.0
20260904214518 68 0.0 0.0 0.00 0.00 0.00 74 1014.4
20260904214018 68 0.0 0.0 0.00 0.00 0.00 73 1014.1
20260904213518 68 0.0 0.0 0.00 0.00 0.00 74 1014.1
20260904213018 67 0.0 0.0 0.00 0.00 0.00 74 1014.1
20260904212518 67 0.0 0.0 0.00 0.00 0.00 75 1014.4
20260904212018 67 0.0 0.0 0.00 0.00 0.00 75 1014.4
20260904211518 67 0.0 0.0 0.00 0.00 0.00 75 1014.4
20260904211018 67 0.0 0.0 0.00 0.00 0.00 74 1014.4
20260904210518 67 0.0 0.0 0.00 0.00 0.00 75 1014.3
20260904210017 67 0.0 0.0 0.00 0.00 0.00 75 1014.3
20260904205518 67 0.0 0.0 0.00 0.00 0.00 74 1014.6
20260904205020 67 0.0 0.0 0.00 0.00 0.00 74 1014.6
20260904204518 67 0.0 0.0 0.00 0.00 0.00 74 1014.6
20260904204018 67 0.0 0.0 0.00 0.00 0.00 73 1014.6
20260904203518 67 0.0 0.0 0.00 0.00 0.00 73 1014.6
20260904203018 67 0.0 0.0 0.00 0.00 0.00 72 1014.5
20260904202518 68 0.0 0.0 0.00 0.00 0.00 71 1014.5
20260904202018 68 0.0 0.0 0.00 0.00 0.00 71 1014.5
20260904201538 68 0.0 0.0 0.00 0.00 0.00 70 1014.5
20260904201018 68 0.0 0.0 0.00 0.00 0.00 70 1014.2
20260904200538 68 0.0 0.0 0.00 0.00 0.00 71 1014.5
20260904200017 68 0.0 0.0 0.00 0.00 0.00 71 1014.2
20260904195517 68 0.0 0.0 0.00 0.00 0.00 71 1014.5
20260904195018 69 0.0 0.0 0.00 0.00 0.00 69 1014.5
20260904194518 69 0.0 0.0 0.00 0.00 0.00 68 1014.5
20260904194018 69 0.0 0.0 0.00 0.00 0.00 68 1014.5
20260904193538 69 0.0 0.0 0.00 0.00 0.00 68 1014.9
20260904193018 68 0.0 0.0 0.00 0.00 0.00 70 1014.5
20260904192538 68 0.0 0.0 0.00 0.00 0.00 71 1014.9
20260904192018 69 0.0 0.0 0.00 0.00 0.00 71 1014.5
20260904191518 69 0.0 0.0 0.00 0.00 0.00 69 1014.5